Time,TemperatureF,DewpointF,PressureIn,WindDirection,WindDirectionDegrees,WindSpeedMPH,WindSpeedGustMPH,Humidity,HourlyPrecipIn,Conditions,Clouds,dailyrainin,SoftwareType,DateUTC
2013-03-13 00:03:00,43.2,32.0,29.38,NW,316,7.4,14.3,39,0.00,,,-99.99,wx200d/1.3,2013-03-13 04:03:00,
2013-03-13 00:08:00,43.0,32.0,29.38,WNW,300,10.1,16.8,38,0.00,,,-99.99,wx200d/1.3,2013-03-13 04:08:00,
2013-03-13 00:13:00,43.0,32.0,29.38,West,278,11.0,13.4,39,0.00,,,-99.99,wx200d/1.3,2013-03-13 04:13:00,
2013-03-13 00:18:00,42.8,32.0,29.38,WNW,301,10.5,16.8,39,0.00,,,-99.99,wx200d/1.3,2013-03-13 04:18:00,
2013-03-13 00:23:00,42.8,32.0,29.38,WNW,293,9.2,15.4,39,0.00,,,-99.99,wx200d/1.3,2013-03-13 04:23:00,
2013-03-13 00:28:00,42.6,32.0,29.38,WNW,296,11.0,14.8,39,0.00,,,-99.99,wx200d/1.3,2013-03-13 04:28:00,
2013-03-13 00:33:00,42.6,32.0,29.38,NW,310,11.2,13.9,39,0.00,,,-99.99,wx200d/1.3,2013-03-13 04:33:00,
2013-03-13 00:38:00,42.6,32.0,29.38,NW,308,7.8,15.2,39,0.00,,,-99.99,wx200d/1.3,2013-03-13 04:38:00,
2013-03-13 00:43:00,42.4,32.0,29.38,NW,309,9.6,14.3,39,0.00,,,-99.99,wx200d/1.3,2013-03-13 04:43:00,
2013-03-13 00:48:00,42.4,32.0,29.38,NNW,329,9.2,14.3,39,0.00,,,-99.99,wx200d/1.3,2013-03-13 04:48:00,
2013-03-13 00:53:00,42.4,32.0,29.38,NW,310,10.1,13.4,38,0.00,,,-99.99,wx200d/1.3,2013-03-13 04:53:00,
2013-03-13 00:58:00,42.4,32.0,29.38,West,271,10.5,16.8,38,0.00,,,-99.99,wx200d/1.3,2013-03-13 04:58:00,
2013-03-13 01:03:00,42.3,32.0,29.38,NW,317,11.0,19.9,38,0.00,,,-99.99,wx200d/1.3,2013-03-13 05:03:00,
2013-03-13 01:08:00,42.3,32.0,29.38,NNW,337,9.6,13.9,38,0.00,,,-99.99,wx200d/1.3,2013-03-13 05:08:00,
2013-03-13 01:13:00,42.1,32.0,29.38,NW,317,8.7,11.6,38,0.00,,,-99.99,wx200d/1.3,2013-03-13 05:13:00,
2013-03-13 01:18:00,42.1,32.0,29.38,NW,322,9.6,13.0,38,0.00,,,-99.99,wx200d/1.3,2013-03-13 05:18:00,
2013-03-13 01:23:00,41.7,32.0,29.38,NW,310,6.9,10.1,38,0.00,,,-99.99,wx200d/1.3,2013-03-13 05:23:00,
2013-03-13 01:28:00,41.5,32.0,29.38,NW,316,6.3,8.3,38,0.00,,,-99.99,wx200d/1.3,2013-03-13 05:28:00,
2013-03-13 01:33:00,41.2,32.0,29.38,NW,320,5.8,9.2,38,0.00,,,-99.99,wx200d/1.3,2013-03-13 05:33:00,
2013-03-13 01:38:00,41.0,32.0,29.38,NW,312,6.9,8.7,39,0.00,,,-99.99,wx200d/1.3,2013-03-13 05:38:00,
2013-03-13 01:43:00,40.6,32.0,29.38,NW,318,5.8,8.3,39,0.00,,,-99.99,wx200d/1.3,2013-03-13 05:43:00,
2013-03-13 01:48:00,40.5,32.0,29.35,NNW,336,4.0,6.9,39,0.00,,,-99.99,wx200d/1.3,2013-03-13 05:48:00,
2013-03-13 01:54:00,40.3,32.0,29.35,NNW,331,3.6,6.3,39,0.00,,,-99.99,wx200d/1.3,2013-03-13 05:54:00,
2013-03-13 01:59:00,40.3,32.0,29.35,NNW,338,3.6,5.8,40,0.00,,,-99.99,wx200d/1.3,2013-03-13 05:59:00,
2013-03-13 02:04:00,40.1,32.0,29.38,NW,315,4.0,6.9,40,0.00,,,-99.99,wx200d/1.3,2013-03-13 06:04:00,
2013-03-13 02:09:00,39.9,32.0,29.38,NNW,330,2.7,4.9,40,0.00,,,-99.99,wx200d/1.3,2013-03-13 06:09:00,
2013-03-13 02:14:00,39.7,32.0,29.38,NW,312,4.0,6.7,40,0.00,,,-99.99,wx200d/1.3,2013-03-13 06:14:00,
2013-03-13 02:19:00,39.4,32.0,29.38,NW,309,4.9,6.3,40,0.00,,,-99.99,wx200d/1.3,2013-03-13 06:19:00,
2013-03-13 02:24:00,39.6,32.0,29.38,NW,309,5.8,6.9,40,0.00,,,-99.99,wx200d/1.3,2013-03-13 06:24:00,
2013-03-13 02:29:00,39.7,32.0,29.38,NW,323,3.6,8.3,40,0.00,,,-99.99,wx200d/1.3,2013-03-13 06:29:00,
2013-03-13 02:34:00,39.7,32.0,29.38,NNW,335,4.5,7.4,40,0.00,,,-99.99,wx200d/1.3,2013-03-13 06:34:00,
2013-03-13 02:39:00,39.7,32.0,29.38,NW,324,3.1,6.7,40,0.00,,,-99.99,wx200d/1.3,2013-03-13 06:39:00,
2013-03-13 02:44:00,39.7,32.0,29.38,NNW,341,3.1,7.8,40,0.00,,,-99.99,wx200d/1.3,2013-03-13 06:44:00,
2013-03-13 02:49:00,39.6,32.0,29.35,NNW,332,4.0,6.7,40,0.00,,,-99.99,wx200d/1.3,2013-03-13 06:49:00,
2013-03-13 02:54:00,39.6,32.0,29.35,NNW,333,0.0,6.3,40,0.00,,,-99.99,wx200d/1.3,2013-03-13 06:54:00,
2013-03-13 02:59:00,39.6,32.0,29.35,NW,325,5.4,6.9,40,0.00,,,-99.99,wx200d/1.3,2013-03-13 06:59:00,
2013-03-13 03:04:00,39.6,32.0,29.35,NNW,327,4.5,6.3,40,0.00,,,-99.99,wx200d/1.3,2013-03-13 07:04:00,
2013-03-13 03:09:00,39.4,32.0,29.35,NNW,340,4.0,5.8,40,0.00,,,-99.99,wx200d/1.3,2013-03-13 07:09:00,
2013-03-13 03:14:00,39.4,32.0,29.35,NNW,341,0.0,4.9,40,0.00,,,-99.99,wx200d/1.3,2013-03-13 07:14:00,
2013-03-13 03:19:00,39.2,32.0,29.35,North,356,2.7,4.9,40,0.00,,,-99.99,wx200d/1.3,2013-03-13 07:19:00,
2013-03-13 03:24:00,39.4,32.0,29.35,North,5,0.0,5.4,40,0.00,,,-99.99,wx200d/1.3,2013-03-13 07:24:00,
2013-03-13 03:29:00,39.2,32.0,29.35,NNW,338,0.0,5.4,40,0.00,,,-99.99,wx200d/1.3,2013-03-13 07:29:00,
2013-03-13 03:34:00,39.0,32.0,29.35,NNW,343,3.6,4.0,41,0.00,,,-99.99,wx200d/1.3,2013-03-13 07:34:00,
2013-03-13 03:39:00,39.2,32.0,29.35,NNW,341,2.7,4.5,42,0.00,,,-99.99,wx200d/1.3,2013-03-13 07:39:00,
2013-03-13 03:44:00,39.2,32.0,29.35,NNW,333,0.0,5.4,42,0.00,,,-99.99,wx200d/1.3,2013-03-13 07:44:00,
2013-03-13 03:49:00,39.4,32.0,29.35,NW,318,4.0,6.3,42,0.00,,,-99.99,wx200d/1.3,2013-03-13 07:49:00,
2013-03-13 03:54:00,39.4,32.0,29.35,NW,324,4.0,5.4,41,0.00,,,-99.99,wx200d/1.3,2013-03-13 07:54:00,
2013-03-13 03:59:00,39.6,32.0,29.35,NW,317,4.0,5.8,41,0.00,,,-99.99,wx200d/1.3,2013-03-13 07:59:00,
2013-03-13 04:04:00,39.7,32.0,29.35,NNW,329,4.5,6.3,41,0.00,,,-99.99,wx200d/1.3,2013-03-13 08:04:00,
2013-03-13 04:10:00,39.9,32.0,29.35,NNW,339,3.1,6.7,40,0.00,,,-99.99,wx200d/1.3,2013-03-13 08:10:00,
2013-03-13 04:15:00,39.9,32.0,29.35,NW,321,0.0,3.6,40,0.00,,,-99.99,wx200d/1.3,2013-03-13 08:15:00,
2013-03-13 04:20:00,39.7,32.0,29.35,NW,321,0.0,0.0,40,0.00,,,-99.99,wx200d/1.3,2013-03-13 08:20:00,
2013-03-13 04:25:00,39.7,32.0,29.35,NW,321,0.0,0.0,40,0.00,,,-99.99,wx200d/1.3,2013-03-13 08:25:00,
2013-03-13 04:30:00,39.4,32.0,29.35,NW,321,0.0,0.0,40,0.00,,,-99.99,wx200d/1.3,2013-03-13 08:30:00,
2013-03-13 04:35:00,39.0,32.0,29.35,NW,321,0.0,0.0,40,0.00,,,-99.99,wx200d/1.3,2013-03-13 08:35:00,
2013-03-13 04:40:00,38.7,32.0,29.35,NW,322,0.0,0.0,40,0.00,,,-99.99,wx200d/1.3,2013-03-13 08:40:00,
2013-03-13 04:45:00,38.5,32.0,29.35,NW,322,0.0,0.0,40,0.00,,,-99.99,wx200d/1.3,2013-03-13 08:45:00,
2013-03-13 04:50:00,38.1,32.0,29.35,NW,321,0.0,0.0,40,0.00,,,-99.99,wx200d/1.3,2013-03-13 08:50:00,
2013-03-13 04:55:00,37.9,32.0,29.35,NW,322,0.0,0.0,41,0.00,,,-99.99,wx200d/1.3,2013-03-13 08:55:00,
2013-03-13 05:00:00,37.9,32.0,29.35,NW,322,0.0,0.0,41,0.00,,,-99.99,wx200d/1.3,2013-03-13 09:00:00,
2013-03-13 05:05:00,37.8,32.0,29.35,NW,321,0.0,0.0,42,0.00,,,-99.99,wx200d/1.3,2013-03-13 09:05:00,
2013-03-13 05:10:00,37.8,32.0,29.35,NW,321,0.0,0.0,43,0.00,,,-99.99,wx200d/1.3,2013-03-13 09:10:00,
2013-03-13 05:15:00,37.4,32.0,29.35,NNW,336,0.0,0.0,45,0.00,,,-99.99,wx200d/1.3,2013-03-13 09:15:00,
2013-03-13 05:20:00,37.2,32.0,29.35,NNW,336,0.0,0.0,46,0.00,,,-99.99,wx200d/1.3,2013-03-13 09:20:00,
2013-03-13 05:25:00,37.0,32.0,29.35,NNW,336,0.0,0.0,46,0.00,,,-99.99,wx200d/1.3,2013-03-13 09:25:00,
2013-03-13 05:30:00,37.0,32.0,29.35,NNW,335,0.0,0.0,47,0.00,,,-99.99,wx200d/1.3,2013-03-13 09:30:00,
2013-03-13 05:35:00,37.0,32.0,29.35,NNW,335,3.1,3.6,48,0.00,,,-99.99,wx200d/1.3,2013-03-13 09:35:00,
2013-03-13 05:40:00,36.9,32.0,29.35,NNW,336,2.7,4.0,49,0.00,,,-99.99,wx200d/1.3,2013-03-13 09:40:00,
2013-03-13 05:45:00,36.9,32.0,29.35,NNW,336,0.0,3.1,49,0.00,,,-99.99,wx200d/1.3,2013-03-13 09:45:00,
2013-03-13 05:50:00,36.9,32.0,29.35,NNW,336,0.0,0.0,49,0.00,,,-99.99,wx200d/1.3,2013-03-13 09:50:00,
2013-03-13 05:55:00,37.0,32.0,29.35,NNW,335,0.0,0.0,49,0.00,,,-99.99,wx200d/1.3,2013-03-13 09:55:00,
2013-03-13 06:00:00,37.2,32.0,29.35,NNW,335,0.0,0.0,49,0.00,,,-99.99,wx200d/1.3,2013-03-13 10:00:00,
2013-03-13 06:06:00,37.2,32.0,29.35,NNW,336,0.0,0.0,49,0.00,,,-99.99,wx200d/1.3,2013-03-13 10:06:00,
2013-03-13 06:11:00,37.0,32.0,29.35,NNW,335,0.0,0.0,48,0.00,,,-99.99,wx200d/1.3,2013-03-13 10:11:00,
2013-03-13 06:16:00,36.7,32.0,29.35,NNW,336,0.0,2.7,47,0.00,,,-99.99,wx200d/1.3,2013-03-13 10:16:00,
2013-03-13 06:21:00,36.5,32.0,29.35,NNW,336,0.0,3.1,47,0.00,,,-99.99,wx200d/1.3,2013-03-13 10:21:00,
2013-03-13 06:26:00,36.3,32.0,29.35,NNW,336,0.0,2.7,47,0.00,,,-99.99,wx200d/1.3,2013-03-13 10:26:00,
2013-03-13 06:31:00,36.3,32.0,29.35,NNW,335,0.0,0.0,47,0.00,,,-99.99,wx200d/1.3,2013-03-13 10:31:00,
2013-03-13 06:36:00,36.1,32.0,29.35,NNW,336,0.0,0.0,47,0.00,,,-99.99,wx200d/1.3,2013-03-13 10:36:00,
2013-03-13 06:41:00,36.1,32.0,29.35,NNW,336,0.0,0.0,47,0.00,,,-99.99,wx200d/1.3,2013-03-13 10:41:00,
2013-03-13 06:46:00,36.0,32.0,29.38,NNW,336,0.0,0.0,47,0.00,,,-99.99,wx200d/1.3,2013-03-13 10:46:00,
2013-03-13 06:51:00,36.0,32.0,29.38,NNW,336,0.0,0.0,46,0.00,,,-99.99,wx200d/1.3,2013-03-13 10:51:00,
2013-03-13 06:56:00,35.6,32.0,29.38,NNW,336,0.0,0.0,46,0.00,,,-99.99,wx200d/1.3,2013-03-13 10:56:00,
2013-03-13 07:01:00,35.4,32.0,29.38,NNW,335,0.0,0.0,46,0.00,,,-99.99,wx200d/1.3,2013-03-13 11:01:00,
2013-03-13 07:06:00,35.2,32.0,29.38,NNW,336,0.0,0.0,46,0.00,,,-99.99,wx200d/1.3,2013-03-13 11:06:00,
2013-03-13 07:11:00,35.1,32.0,29.38,NNW,335,0.0,0.0,46,0.00,,,-99.99,wx200d/1.3,2013-03-13 11:11:00,
2013-03-13 07:16:00,35.1,32.0,29.38,NNW,335,0.0,0.0,46,0.00,,,-99.99,wx200d/1.3,2013-03-13 11:16:00,
2013-03-13 07:21:00,34.9,32.0,29.38,NNW,335,0.0,0.0,46,0.00,,,-99.99,wx200d/1.3,2013-03-13 11:21:00,
2013-03-13 07:26:00,34.5,32.0,29.38,NNW,336,0.0,0.0,47,0.00,,,-99.99,wx200d/1.3,2013-03-13 11:26:00,
2013-03-13 07:32:00,34.3,32.0,29.38,NNW,336,0.0,2.7,49,0.00,,,-99.99,wx200d/1.3,2013-03-13 11:32:00,
2013-03-13 07:37:00,34.3,32.0,29.38,NNW,336,0.0,0.0,50,0.00,,,-99.99,wx200d/1.3,2013-03-13 11:37:00,
2013-03-13 07:42:00,34.3,32.0,29.38,NNW,336,0.0,0.0,50,0.00,,,-99.99,wx200d/1.3,2013-03-13 11:42:00,
2013-03-13 07:47:00,35.1,32.0,29.38,NNW,336,0.0,0.0,50,0.00,,,-99.99,wx200d/1.3,2013-03-13 11:47:00,
2013-03-13 07:52:00,35.4,32.0,29.38,NNW,336,0.0,0.0,51,0.00,,,-99.99,wx200d/1.3,2013-03-13 11:52:00,
2013-03-13 07:57:00,35.4,32.0,29.38,NNW,336,0.0,2.7,51,0.00,,,-99.99,wx200d/1.3,2013-03-13 11:57:00,
2013-03-13 08:02:00,35.8,32.0,29.38,NNW,336,0.0,0.0,51,0.00,,,-99.99,wx200d/1.3,2013-03-13 12:02:00,
2013-03-13 08:07:00,36.1,32.0,29.38,NNW,336,0.0,0.0,51,0.00,,,-99.99,wx200d/1.3,2013-03-13 12:07:00,
2013-03-13 08:12:00,36.5,32.0,29.38,NNW,336,0.0,0.0,50,0.00,,,-99.99,wx200d/1.3,2013-03-13 12:12:00,
2013-03-13 08:17:00,36.9,32.0,29.38,NNW,336,0.0,0.0,50,0.00,,,-99.99,wx200d/1.3,2013-03-13 12:17:00,
2013-03-13 08:22:00,37.0,32.0,29.38,NNW,336,0.0,0.0,50,0.00,,,-99.99,wx200d/1.3,2013-03-13 12:22:00,
2013-03-13 08:27:00,37.2,32.0,29.38,NNW,336,0.0,0.0,50,0.00,,,-99.99,wx200d/1.3,2013-03-13 12:27:00,
2013-03-13 08:32:00,37.4,32.0,29.38,West,259,0.0,3.1,48,0.00,,,-99.99,wx200d/1.3,2013-03-13 12:32:00,
2013-03-13 08:37:00,37.4,32.0,29.38,WSW,247,4.0,5.8,44,0.00,,,-99.99,wx200d/1.3,2013-03-13 12:37:00,
2013-03-13 08:42:00,37.8,32.0,29.38,WSW,248,4.9,5.8,43,0.00,,,-99.99,wx200d/1.3,2013-03-13 12:42:00,
2013-03-13 08:47:00,38.1,32.0,29.38,SW,222,4.5,4.9,44,0.00,,,-99.99,wx200d/1.3,2013-03-13 12:47:00,
2013-03-13 08:52:00,38.3,32.0,29.38,SW,231,4.9,5.4,42,0.00,,,-99.99,wx200d/1.3,2013-03-13 12:52:00,
2013-03-13 08:57:00,38.7,32.0,29.38,SW,227,4.9,6.3,40,0.00,,,-99.99,wx200d/1.3,2013-03-13 12:57:00,
2013-03-13 09:03:00,39.2,32.0,29.38,WSW,239,5.4,7.4,40,0.00,,,-99.99,wx200d/1.3,2013-03-13 13:03:00,
2013-03-13 09:08:00,39.4,32.0,29.38,WSW,245,6.3,8.3,40,0.00,,,-99.99,wx200d/1.3,2013-03-13 13:08:00,
2013-03-13 09:13:00,39.6,32.0,29.38,SW,234,6.3,7.4,39,0.00,,,-99.99,wx200d/1.3,2013-03-13 13:13:00,
2013-03-13 09:18:00,39.9,32.0,29.38,WSW,241,5.8,7.4,39,0.00,,,-99.99,wx200d/1.3,2013-03-13 13:18:00,
2013-03-13 09:23:00,40.1,32.0,29.38,WSW,243,6.7,7.8,38,0.00,,,-99.99,wx200d/1.3,2013-03-13 13:23:00,
2013-03-13 09:28:00,40.5,32.0,29.38,WSW,246,7.4,8.7,38,0.00,,,-99.99,wx200d/1.3,2013-03-13 13:28:00,
2013-03-13 09:33:00,40.6,32.0,29.38,WSW,246,7.4,9.2,39,0.00,,,-99.99,wx200d/1.3,2013-03-13 13:33:00,
2013-03-13 09:38:00,41.0,32.0,29.38,SW,236,7.4,8.7,38,0.00,,,-99.99,wx200d/1.3,2013-03-13 13:38:00,
2013-03-13 09:43:00,41.2,32.0,29.38,West,265,7.8,10.1,37,0.00,,,-99.99,wx200d/1.3,2013-03-13 13:43:00,
2013-03-13 09:48:00,41.5,32.0,29.38,WSW,246,6.9,8.7,36,0.00,,,-99.99,wx200d/1.3,2013-03-13 13:48:00,
2013-03-13 09:53:00,41.5,32.0,29.38,WSW,256,6.9,9.6,35,0.00,,,-99.99,wx200d/1.3,2013-03-13 13:53:00,
2013-03-13 09:58:00,41.7,32.0,29.38,WSW,237,6.3,9.6,35,0.00,,,-99.99,wx200d/1.3,2013-03-13 13:58:00,
2013-03-13 10:03:00,42.1,32.0,29.38,WSW,237,6.9,9.6,34,0.00,,,-99.99,wx200d/1.3,2013-03-13 14:03:00,
2013-03-13 10:08:00,42.3,32.0,29.38,SW,236,6.7,8.3,33,0.00,,,-99.99,wx200d/1.3,2013-03-13 14:08:00,
2013-03-13 10:13:00,42.4,32.0,29.38,WSW,253,7.4,10.5,30,0.00,,,-99.99,wx200d/1.3,2013-03-13 14:13:00,
2013-03-13 10:18:00,42.6,32.0,29.38,SW,234,8.7,10.1,30,0.00,,,-99.99,wx200d/1.3,2013-03-13 14:18:00,
2013-03-13 10:23:00,43.0,32.0,29.38,SW,236,8.7,11.6,31,0.00,,,-99.99,wx200d/1.3,2013-03-13 14:23:00,
2013-03-13 10:28:00,43.2,32.0,29.38,WSW,253,10.1,11.6,31,0.00,,,-99.99,wx200d/1.3,2013-03-13 14:28:00,
2013-03-13 10:33:00,43.3,32.0,29.38,West,271,11.2,13.9,31,0.00,,,-99.99,wx200d/1.3,2013-03-13 14:33:00,
2013-03-13 10:38:00,43.2,32.0,29.38,WSW,247,8.3,13.9,30,0.00,,,-99.99,wx200d/1.3,2013-03-13 14:38:00,
2013-03-13 10:43:00,43.3,32.0,29.38,SW,229,9.2,11.0,30,0.00,,,-99.99,wx200d/1.3,2013-03-13 14:43:00,
2013-03-13 10:48:00,43.5,32.0,29.38,SW,228,10.5,13.0,30,0.00,,,-99.99,wx200d/1.3,2013-03-13 14:48:00,
2013-03-13 10:53:00,43.5,32.0,29.38,WSW,257,10.1,13.4,30,0.00,,,-99.99,wx200d/1.3,2013-03-13 14:53:00,
2013-03-13 10:58:00,43.3,32.0,29.38,WSW,241,9.6,11.0,31,0.00,,,-99.99,wx200d/1.3,2013-03-13 14:58:00,
2013-03-13 11:03:00,44.2,32.0,29.35,WSW,239,10.1,11.6,32,0.00,,,-99.99,wx200d/1.3,2013-03-13 15:03:00,
2013-03-13 11:08:00,44.2,32.0,29.35,SW,236,11.6,15.2,29,0.00,,,-99.99,wx200d/1.3,2013-03-13 15:08:00,
2013-03-13 11:13:00,44.8,32.0,29.35,WSW,245,10.1,13.9,30,0.00,,,-99.99,wx200d/1.3,2013-03-13 15:13:00,
2013-03-13 11:18:00,45.0,32.0,29.35,SW,235,12.5,15.9,29,0.00,,,-99.99,wx200d/1.3,2013-03-13 15:18:00,
2013-03-13 11:23:00,45.1,32.0,29.35,West,259,10.5,14.8,29,0.00,,,-99.99,wx200d/1.3,2013-03-13 15:23:00,
2013-03-13 11:28:00,45.1,32.0,29.35,WSW,245,12.5,15.9,29,0.00,,,-99.99,wx200d/1.3,2013-03-13 15:28:00,
2013-03-13 11:33:00,45.5,32.0,29.35,WSW,251,12.1,15.9,29,0.00,,,-99.99,wx200d/1.3,2013-03-13 15:33:00,
2013-03-13 11:38:00,45.7,32.0,29.35,WSW,246,9.6,13.4,28,0.00,,,-99.99,wx200d/1.3,2013-03-13 15:38:00,
2013-03-13 11:43:00,45.5,32.0,29.35,WSW,252,12.1,15.9,28,0.00,,,-99.99,wx200d/1.3,2013-03-13 15:43:00,
2013-03-13 11:48:00,45.9,32.0,29.35,WSW,254,14.8,16.8,28,0.00,,,-99.99,wx200d/1.3,2013-03-13 15:48:00,
2013-03-13 11:53:00,45.1,32.0,29.35,West,281,11.2,15.2,28,0.00,,,-99.99,wx200d/1.3,2013-03-13 15:53:00,
2013-03-13 11:58:00,46.2,32.0,29.35,NNW,332,8.7,13.9,29,0.00,,,-99.99,wx200d/1.3,2013-03-13 15:58:00,
2013-03-13 12:03:00,46.2,32.0,29.35,WNW,300,10.1,15.4,28,0.00,,,-99.99,wx200d/1.3,2013-03-13 16:03:00,
2013-03-13 12:08:00,46.0,32.0,29.35,West,270,6.7,13.0,27,0.00,,,-99.99,wx200d/1.3,2013-03-13 16:08:00,
2013-03-13 12:13:00,46.2,32.0,29.35,WSW,249,7.4,11.2,27,0.00,,,-99.99,wx200d/1.3,2013-03-13 16:13:00,
2013-03-13 12:18:00,46.2,32.0,29.35,WSW,251,6.7,10.5,27,0.00,,,-99.99,wx200d/1.3,2013-03-13 16:18:00,
2013-03-13 12:23:00,45.9,32.0,29.35,WSW,253,12.5,14.8,27,0.00,,,-99.99,wx200d/1.3,2013-03-13 16:23:00,
2013-03-13 12:28:00,45.9,32.0,29.35,WSW,256,11.0,15.9,27,0.00,,,-99.99,wx200d/1.3,2013-03-13 16:28:00,
2013-03-13 12:33:00,45.5,32.0,29.35,West,269,9.2,16.3,27,0.00,,,-99.99,wx200d/1.3,2013-03-13 16:33:00,
2013-03-13 12:38:00,45.7,32.0,29.35,WSW,248,12.5,15.2,27,0.00,,,-99.99,wx200d/1.3,2013-03-13 16:38:00,
2013-03-13 12:43:00,45.7,32.0,29.35,WSW,255,10.5,14.3,27,0.00,,,-99.99,wx200d/1.3,2013-03-13 16:43:00,
2013-03-13 12:48:00,46.0,32.0,29.35,WSW,240,12.5,15.2,27,0.00,,,-99.99,wx200d/1.3,2013-03-13 16:48:00,
2013-03-13 12:53:00,46.4,32.0,29.35,WSW,240,10.5,15.2,27,0.00,,,-99.99,wx200d/1.3,2013-03-13 16:53:00,
2013-03-13 12:58:00,47.1,32.0,29.35,WSW,241,12.1,14.3,27,0.00,,,-99.99,wx200d/1.3,2013-03-13 16:58:00,
2013-03-13 13:03:00,46.8,32.0,29.32,WSW,251,10.5,14.3,27,0.00,,,-99.99,wx200d/1.3,2013-03-13 17:03:00,
2013-03-13 13:08:00,46.6,32.0,29.32,WSW,248,12.5,15.2,27,0.00,,,-99.99,wx200d/1.3,2013-03-13 17:08:00,
2013-03-13 13:13:00,46.2,32.0,29.32,WSW,238,13.0,15.4,27,0.00,,,-99.99,wx200d/1.3,2013-03-13 17:13:00,
2013-03-13 13:18:00,46.0,32.0,29.32,WSW,242,13.0,15.4,27,0.00,,,-99.99,wx200d/1.3,2013-03-13 17:18:00,
2013-03-13 13:23:00,45.7,32.0,29.32,West,281,13.9,16.8,27,0.00,,,-99.99,wx200d/1.3,2013-03-13 17:23:00,
2013-03-13 13:28:00,45.7,32.0,29.32,WNW,300,11.6,15.4,28,0.00,,,-99.99,wx200d/1.3,2013-03-13 17:28:00,
2013-03-13 13:33:00,45.5,32.0,29.32,West,264,17.2,20.1,29,0.00,,,-99.99,wx200d/1.3,2013-03-13 17:33:00,
2013-03-13 13:38:00,45.0,32.0,29.32,NW,313,12.1,17.2,30,0.00,,,-99.99,wx200d/1.3,2013-03-13 17:38:00,
2013-03-13 13:44:00,44.4,32.0,29.32,WNW,282,11.2,18.1,31,0.00,,,-99.99,wx200d/1.3,2013-03-13 17:44:00,
2013-03-13 13:49:00,44.1,32.0,29.32,NW,325,8.3,14.3,30,0.00,,,-99.99,wx200d/1.3,2013-03-13 17:49:00,
2013-03-13 13:54:00,43.9,32.0,29.32,SW,221,9.2,16.3,32,0.00,,,-99.99,wx200d/1.3,2013-03-13 17:54:00,
2013-03-13 13:59:00,45.0,32.0,29.32,SSW,213,7.8,11.0,33,0.00,,,-99.99,wx200d/1.3,2013-03-13 17:59:00,
2013-03-13 14:04:00,45.7,32.0,29.32,SW,229,7.4,9.6,31,0.00,,,-99.99,wx200d/1.3,2013-03-13 18:04:00,
2013-03-13 14:09:00,45.7,32.0,29.32,SW,236,9.6,13.4,29,0.00,,,-99.99,wx200d/1.3,2013-03-13 18:09:00,
2013-03-13 14:14:00,45.1,32.0,29.32,WSW,239,10.5,12.1,32,0.00,,,-99.99,wx200d/1.3,2013-03-13 18:14:00,
2013-03-13 14:19:00,45.3,32.0,29.32,WSW,246,8.7,12.5,30,0.00,,,-99.99,wx200d/1.3,2013-03-13 18:19:00,
2013-03-13 14:24:00,45.1,32.0,29.32,WSW,252,13.0,16.8,29,0.00,,,-99.99,wx200d/1.3,2013-03-13 18:24:00,
2013-03-13 14:29:00,44.6,32.0,29.32,WSW,246,11.6,15.4,30,0.00,,,-99.99,wx200d/1.3,2013-03-13 18:29:00,
2013-03-13 14:34:00,44.6,32.0,29.32,SW,228,13.0,16.3,30,0.00,,,-99.99,wx200d/1.3,2013-03-13 18:34:00,
2013-03-13 14:39:00,45.0,32.0,29.32,SW,233,12.1,14.8,30,0.00,,,-99.99,wx200d/1.3,2013-03-13 18:39:00,
2013-03-13 14:44:00,46.2,32.0,29.32,SSW,213,11.2,14.3,30,0.00,,,-99.99,wx200d/1.3,2013-03-13 18:44:00,
2013-03-13 14:49:00,46.8,32.0,29.29,WSW,254,15.9,18.1,28,0.00,,,-99.99,wx200d/1.3,2013-03-13 18:49:00,
2013-03-13 14:54:00,46.6,32.0,29.29,SW,236,14.8,19.5,28,0.00,,,-99.99,wx200d/1.3,2013-03-13 18:54:00,
2013-03-13 14:59:00,43.5,32.0,29.29,WNW,289,23.3,31.3,40,39.29,,,-99.99,wx200d/1.3,2013-03-13 18:59:00,
2013-03-13 15:04:00,41.5,32.0,29.32,West,261,20.1,29.5,49,0.59,,,-99.99,wx200d/1.3,2013-03-13 19:04:00,
2013-03-13 15:09:00,41.0,32.0,29.32,WNW,293,15.9,26.2,50,0.59,,,-99.99,wx200d/1.3,2013-03-13 19:09:00,
2013-03-13 15:14:00,40.6,32.0,29.32,West,259,17.2,23.7,52,0.59,,,-99.99,wx200d/1.3,2013-03-13 19:14:00,
2013-03-13 15:19:00,39.0,32.0,29.32,WSW,253,19.5,24.8,60,39.29,,,-99.99,wx200d/1.3,2013-03-13 19:19:00,
2013-03-13 15:24:00,37.9,32.0,29.32,NW,306,12.1,21.0,69,39.29,,,-99.99,wx200d/1.3,2013-03-13 19:24:00,
2013-03-13 15:29:00,37.8,32.0,29.32,WNW,283,9.6,15.9,73,39.29,,,-99.99,wx200d/1.3,2013-03-13 19:29:00,
2013-03-13 15:34:00,38.1,32.0,29.32,NW,308,6.9,12.5,76,39.29,,,-99.99,wx200d/1.3,2013-03-13 19:34:00,
2013-03-13 15:39:00,39.6,32.0,29.32,West,275,4.5,8.3,77,39.29,,,-99.99,wx200d/1.3,2013-03-13 19:39:00,
2013-03-13 15:44:00,40.8,36.0,29.32,WNW,293,4.0,8.3,79,39.29,,,-99.99,wx200d/1.3,2013-03-13 19:44:00,
2013-03-13 15:49:00,41.2,32.0,29.32,WSW,247,9.6,10.5,69,39.29,,,-99.99,wx200d/1.3,2013-03-13 19:49:00,
2013-03-13 15:54:00,42.1,32.0,29.32,West,259,10.1,13.4,56,39.29,,,-99.99,wx200d/1.3,2013-03-13 19:54:00,
2013-03-13 15:59:00,43.0,32.0,29.32,NW,318,11.0,15.9,50,39.29,,,-99.99,wx200d/1.3,2013-03-13 19:59:00,
2013-03-13 16:04:00,43.5,32.0,29.32,West,266,13.4,17.7,43,39.29,,,-99.99,wx200d/1.3,2013-03-13 20:04:00,
2013-03-13 16:09:00,43.0,32.0,29.32,WSW,243,19.5,22.8,41,39.29,,,-99.99,wx200d/1.3,2013-03-13 20:09:00,
2013-03-13 16:14:00,42.4,32.0,29.32,WNW,288,13.9,20.6,42,39.29,,,-99.99,wx200d/1.3,2013-03-13 20:14:00,
2013-03-13 16:19:00,42.6,32.0,29.32,WNW,296,12.5,21.5,45,39.29,,,-99.99,wx200d/1.3,2013-03-13 20:19:00,
2013-03-13 16:24:00,42.4,32.0,29.32,WNW,283,9.2,14.3,45,39.29,,,-99.99,wx200d/1.3,2013-03-13 20:24:00,
2013-03-13 16:29:00,42.6,32.0,29.32,WNW,283,8.7,11.2,41,39.29,,,-99.99,wx200d/1.3,2013-03-13 20:29:00,
2013-03-13 16:34:00,42.6,32.0,29.32,WNW,284,6.3,11.0,40,39.29,,,-99.99,wx200d/1.3,2013-03-13 20:34:00,
2013-03-13 16:39:00,43.0,32.0,29.32,WNW,298,10.1,11.6,40,39.29,,,-99.99,wx200d/1.3,2013-03-13 20:39:00,
2013-03-13 16:44:00,43.0,32.0,29.32,WNW,292,8.7,13.4,38,39.29,,,-99.99,wx200d/1.3,2013-03-13 20:44:00,
2013-03-13 16:49:00,43.5,32.0,29.32,West,261,8.3,11.2,38,39.29,,,-99.99,wx200d/1.3,2013-03-13 20:49:00,
2013-03-13 16:54:00,44.2,32.0,29.32,West,267,5.8,8.3,37,39.29,,,-99.99,wx200d/1.3,2013-03-13 20:54:00,
2013-03-13 16:59:00,44.8,32.0,29.32,West,264,6.9,7.8,35,39.29,,,-99.99,wx200d/1.3,2013-03-13 20:59:00,
2013-03-13 17:04:00,45.1,32.0,29.32,WNW,298,8.7,11.2,32,39.29,,,-99.99,wx200d/1.3,2013-03-13 21:04:00,
2013-03-13 17:10:00,45.1,32.0,29.32,WNW,290,13.0,16.3,29,39.29,,,-99.99,wx200d/1.3,2013-03-13 21:10:00,
2013-03-13 17:15:00,46.2,32.0,29.32,WNW,285,18.1,21.0,27,39.29,,,-99.99,wx200d/1.3,2013-03-13 21:15:00,
2013-03-13 17:20:00,46.4,32.0,29.32,WNW,286,19.0,25.3,27,39.29,,,-99.99,wx200d/1.3,2013-03-13 21:20:00,
2013-03-13 17:25:00,45.9,32.0,29.32,West,278,16.3,22.8,27,39.29,,,-99.99,wx200d/1.3,2013-03-13 21:25:00,
2013-03-13 17:30:00,45.3,32.0,29.32,West,274,15.4,21.0,27,0.00,,,-99.99,wx200d/1.3,2013-03-13 21:30:00,
2013-03-13 17:35:00,45.5,32.0,29.32,West,264,13.9,22.4,27,0.00,,,-99.99,wx200d/1.3,2013-03-13 21:35:00,
2013-03-13 17:40:00,46.0,32.0,29.32,West,280,14.8,21.0,24,0.00,,,-99.99,wx200d/1.3,2013-03-13 21:40:00,
2013-03-13 17:45:00,45.9,32.0,29.32,WSW,257,14.8,23.3,27,0.00,,,-99.99,wx200d/1.3,2013-03-13 21:45:00,
2013-03-13 17:50:00,45.9,32.0,29.32,WNW,298,14.3,19.5,27,0.00,,,-99.99,wx200d/1.3,2013-03-13 21:50:00,
2013-03-13 17:55:00,45.5,32.0,29.32,West,263,15.4,19.9,27,0.00,,,-99.99,wx200d/1.3,2013-03-13 21:55:00,
2013-03-13 18:00:00,45.3,32.0,29.32,West,269,14.3,18.1,27,0.00,,,-99.99,wx200d/1.3,2013-03-13 22:00:00,
2013-03-13 18:05:00,45.0,32.0,29.32,WNW,283,11.2,20.1,27,0.00,,,-99.99,wx200d/1.3,2013-03-13 22:05:00,
2013-03-13 18:10:00,44.4,32.0,29.32,WSW,253,13.9,17.2,27,0.00,,,-99.99,wx200d/1.3,2013-03-13 22:10:00,
2013-03-13 18:15:00,44.1,32.0,29.32,West,260,13.4,17.2,27,0.00,,,-99.99,wx200d/1.3,2013-03-13 22:15:00,
2013-03-13 18:20:00,44.1,32.0,29.32,West,280,13.4,17.7,27,0.00,,,-99.99,wx200d/1.3,2013-03-13 22:20:00,
2013-03-13 18:25:00,43.9,32.0,29.32,West,273,11.0,14.8,28,0.00,,,-99.99,wx200d/1.3,2013-03-13 22:25:00,
2013-03-13 18:30:00,44.1,32.0,29.35,West,273,17.7,26.6,28,0.00,,,-99.99,wx200d/1.3,2013-03-13 22:30:00,
2013-03-13 18:35:00,42.8,32.0,29.35,NW,311,19.0,29.5,35,0.00,,,-99.99,wx200d/1.3,2013-03-13 22:35:00,
2013-03-13 18:40:00,41.7,32.0,29.35,West,260,15.2,27.5,37,0.00,,,-99.99,wx200d/1.3,2013-03-13 22:40:00,
2013-03-13 18:45:00,41.5,32.0,29.35,West,270,13.0,21.0,38,0.00,,,-99.99,wx200d/1.3,2013-03-13 22:45:00,
2013-03-13 18:50:00,41.2,32.0,29.35,NW,308,11.2,20.6,39,0.00,,,-99.99,wx200d/1.3,2013-03-13 22:50:00,
2013-03-13 18:55:00,40.3,32.0,29.35,WNW,298,9.6,15.4,41,0.00,,,-99.99,wx200d/1.3,2013-03-13 22:55:00,
2013-03-13 19:00:00,39.7,32.0,29.35,WNW,297,8.3,12.1,44,0.00,,,-99.99,wx200d/1.3,2013-03-13 23:00:00,
2013-03-13 19:05:00,39.2,32.0,29.35,NW,308,5.4,10.1,46,0.00,,,-99.99,wx200d/1.3,2013-03-13 23:05:00,
2013-03-13 19:10:00,38.8,32.0,29.35,WNW,296,5.8,8.7,48,0.00,,,-99.99,wx200d/1.3,2013-03-13 23:10:00,
2013-03-13 19:15:00,38.8,32.0,29.35,NNW,341,4.9,10.5,48,0.00,,,-99.99,wx200d/1.3,2013-03-13 23:15:00,
2013-03-13 19:20:00,38.7,32.0,29.35,NW,320,5.4,6.7,48,0.00,,,-99.99,wx200d/1.3,2013-03-13 23:20:00,
2013-03-13 19:25:00,38.7,32.0,29.35,NNW,345,4.0,6.9,48,0.00,,,-99.99,wx200d/1.3,2013-03-13 23:25:00,
2013-03-13 19:30:00,38.5,32.0,29.35,NNW,334,4.0,6.3,49,0.00,,,-99.99,wx200d/1.3,2013-03-13 23:30:00,
2013-03-13 19:35:00,38.5,32.0,29.35,SW,234,4.0,9.2,49,0.00,,,-99.99,wx200d/1.3,2013-03-13 23:35:00,
2013-03-13 19:40:00,38.5,32.0,29.35,West,271,8.7,11.2,45,0.00,,,-99.99,wx200d/1.3,2013-03-13 23:40:00,
2013-03-13 19:45:00,38.8,32.0,29.38,West,275,8.7,12.1,42,0.00,,,-99.99,wx200d/1.3,2013-03-13 23:45:00,
2013-03-13 19:50:00,39.2,32.0,29.38,West,262,9.2,13.9,40,0.00,,,-99.99,wx200d/1.3,2013-03-13 23:50:00,
2013-03-13 19:55:00,39.4,32.0,29.38,NNW,333,8.3,14.3,40,0.00,,,-99.99,wx200d/1.3,2013-03-13 23:55:00,
2013-03-13 20:00:00,39.2,32.0,29.38,NW,326,8.7,13.0,40,0.00,,,-99.99,wx200d/1.3,2013-03-14 00:00:00,
2013-03-13 20:05:00,39.0,32.0,29.38,NW,321,8.7,11.6,41,0.00,,,-99.99,wx200d/1.3,2013-03-14 00:05:00,
2013-03-13 20:10:00,38.7,32.0,29.38,West,277,7.8,11.2,41,0.00,,,-99.99,wx200d/1.3,2013-03-14 00:10:00,
2013-03-13 20:15:00,38.5,32.0,29.38,NW,305,8.3,12.1,41,0.00,,,-99.99,wx200d/1.3,2013-03-14 00:15:00,
2013-03-13 20:20:00,38.3,32.0,29.38,WNW,300,10.1,14.8,40,0.00,,,-99.99,wx200d/1.3,2013-03-14 00:20:00,
2013-03-13 20:25:00,38.3,32.0,29.38,West,259,9.2,15.2,40,0.00,,,-99.99,wx200d/1.3,2013-03-14 00:25:00,
2013-03-13 20:30:00,38.3,32.0,29.38,WNW,296,12.1,14.3,40,0.00,,,-99.99,wx200d/1.3,2013-03-14 00:30:00,
2013-03-13 20:35:00,38.1,32.0,29.38,West,281,10.5,16.3,40,0.00,,,-99.99,wx200d/1.3,2013-03-14 00:35:00,
2013-03-13 20:40:00,38.3,32.0,29.38,West,269,13.0,16.3,40,0.00,,,-99.99,wx200d/1.3,2013-03-14 00:40:00,
2013-03-13 20:46:00,38.3,32.0,29.38,WNW,296,14.8,17.7,40,0.00,,,-99.99,wx200d/1.3,2013-03-14 00:46:00,
2013-03-13 20:51:00,38.5,32.0,29.38,West,277,13.0,16.8,39,0.00,,,-99.99,wx200d/1.3,2013-03-14 00:51:00,
2013-03-13 20:56:00,38.5,32.0,29.38,West,265,11.6,16.8,39,0.00,,,-99.99,wx200d/1.3,2013-03-14 00:56:00,
2013-03-13 21:01:00,38.5,32.0,29.38,WNW,298,10.1,16.8,39,0.00,,,-99.99,wx200d/1.3,2013-03-14 01:01:00,
2013-03-13 21:06:00,38.1,32.0,29.38,West,277,14.3,17.7,37,0.00,,,-99.99,wx200d/1.3,2013-03-14 01:06:00,
2013-03-13 21:11:00,38.1,32.0,29.38,West,267,16.3,20.6,34,0.00,,,-99.99,wx200d/1.3,2013-03-14 01:11:00,
2013-03-13 21:16:00,37.9,32.0,29.41,WNW,302,14.3,22.8,33,0.00,,,-99.99,wx200d/1.3,2013-03-14 01:16:00,
2013-03-13 21:21:00,37.8,32.0,29.41,WNW,282,17.2,25.7,31,0.00,,,-99.99,wx200d/1.3,2013-03-14 01:21:00,
2013-03-13 21:27:00,37.4,32.0,29.41,West,278,15.2,22.4,31,0.00,,,-99.99,wx200d/1.3,2013-03-14 01:27:00,
2013-03-13 21:32:00,37.0,32.0,29.41,WNW,285,14.8,20.6,31,0.00,,,-99.99,wx200d/1.3,2013-03-14 01:32:00,
2013-03-13 21:37:00,37.0,32.0,29.41,West,268,15.9,20.1,31,0.00,,,-99.99,wx200d/1.3,2013-03-14 01:37:00,
2013-03-13 21:42:00,36.7,32.0,29.41,West,268,16.3,22.4,32,0.00,,,-99.99,wx200d/1.3,2013-03-14 01:42:00,
2013-03-13 21:47:00,36.7,32.0,29.41,WNW,293,13.4,19.0,32,0.00,,,-99.99,wx200d/1.3,2013-03-14 01:47:00,
2013-03-13 21:52:00,36.3,32.0,29.41,WNW,282,12.1,17.2,33,0.00,,,-99.99,wx200d/1.3,2013-03-14 01:52:00,
2013-03-13 21:57:00,36.1,32.0,29.41,WNW,289,11.0,15.2,34,0.00,,,-99.99,wx200d/1.3,2013-03-14 01:57:00,
2013-03-13 22:02:00,35.8,32.0,29.41,NW,315,7.4,13.0,35,0.00,,,-99.99,wx200d/1.3,2013-03-14 02:02:00,
2013-03-13 22:07:00,35.6,32.0,29.41,NW,324,6.9,12.5,36,0.00,,,-99.99,wx200d/1.3,2013-03-14 02:07:00,
2013-03-13 22:12:00,35.4,32.0,29.41,West,273,8.3,10.1,36,0.00,,,-99.99,wx200d/1.3,2013-03-14 02:12:00,
2013-03-13 22:17:00,35.4,32.0,29.41,West,277,6.3,8.3,38,0.00,,,-99.99,wx200d/1.3,2013-03-14 02:17:00,
2013-03-13 22:22:00,35.1,32.0,29.41,West,268,6.3,8.7,39,0.00,,,-99.99,wx200d/1.3,2013-03-14 02:22:00,
2013-03-13 22:27:00,35.1,32.0,29.41,West,267,7.8,8.7,39,0.00,,,-99.99,wx200d/1.3,2013-03-14 02:27:00,
2013-03-13 22:32:00,35.1,32.0,29.41,West,272,13.0,17.2,38,0.00,,,-99.99,wx200d/1.3,2013-03-14 02:32:00,
2013-03-13 22:37:00,35.4,32.0,29.41,West,271,16.8,18.6,35,0.00,,,-99.99,wx200d/1.3,2013-03-14 02:37:00,
2013-03-13 22:42:00,35.4,32.0,29.41,WNW,289,11.6,18.1,35,0.00,,,-99.99,wx200d/1.3,2013-03-14 02:42:00,
2013-03-13 22:47:00,35.4,32.0,29.41,WNW,291,13.4,17.7,33,0.00,,,-99.99,wx200d/1.3,2013-03-14 02:47:00,
2013-03-13 22:52:00,35.4,32.0,29.41,West,270,15.4,23.7,33,0.00,,,-99.99,wx200d/1.3,2013-03-14 02:52:00,
2013-03-13 22:57:00,35.4,32.0,29.41,WNW,295,13.9,20.6,33,0.00,,,-99.99,wx200d/1.3,2013-03-14 02:57:00,
2013-03-13 23:02:00,35.4,32.0,29.41,WSW,252,15.2,19.9,33,0.00,,,-99.99,wx200d/1.3,2013-03-14 03:02:00,
2013-03-13 23:07:00,35.1,32.0,29.41,WSW,255,16.8,22.8,33,0.00,,,-99.99,wx200d/1.3,2013-03-14 03:07:00,
2013-03-13 23:12:00,35.1,32.0,29.41,WNW,284,17.2,21.5,33,0.00,,,-99.99,wx200d/1.3,2013-03-14 03:12:00,
2013-03-13 23:17:00,34.9,32.0,29.44,WNW,296,15.9,22.4,31,0.00,,,-99.99,wx200d/1.3,2013-03-14 03:17:00,
2013-03-13 23:22:00,34.5,32.0,29.44,West,278,19.0,25.7,31,0.00,,,-99.99,wx200d/1.3,2013-03-14 03:22:00,
2013-03-13 23:27:00,34.5,32.0,29.44,NW,316,15.4,21.9,31,0.00,,,-99.99,wx200d/1.3,2013-03-14 03:27:00,
2013-03-13 23:32:00,34.3,32.0,29.44,NNW,329,13.0,21.0,31,0.00,,,-99.99,wx200d/1.3,2013-03-14 03:32:00,
2013-03-13 23:37:00,34.0,32.0,29.44,WSW,257,15.4,20.1,31,0.00,,,-99.99,wx200d/1.3,2013-03-14 03:37:00,
2013-03-13 23:42:00,34.0,32.0,29.44,WSW,251,16.3,21.5,31,0.00,,,-99.99,wx200d/1.3,2013-03-14 03:42:00,
2013-03-13 23:48:00,34.3,32.0,29.44,WNW,298,25.3,31.3,30,0.00,,,-99.99,wx200d/1.3,2013-03-14 03:48:00,
2013-03-13 23:53:00,34.3,32.0,29.44,West,278,12.5,25.3,30,0.00,,,-99.99,wx200d/1.3,2013-03-14 03:53:00,
2013-03-13 23:58:00,34.0,32.0,29.44,West,268,13.0,23.3,30,0.00,,,-99.99,wx200d/1.3,2013-03-14 03:58:00,